Skip Page Navigation
NASA JPL Caltech
NASA Logo - Jet Propulsion Laboratory + View the NASA Portal
+ Center for Near-Earth Object Studies
JPL Home Earth Solar System Stars & Galaxies Technology
JPL Solar System Dynamics
BODIES ORBITS EPHEMERIDES TOOLS PHYSICAL DATA DISCOVERY FAQ SITE MAP
JPL Small-Body Database Browser
Search: [ help ]  
120132 (2003 FY128)
Classification: TransNeptunian Object          SPK-ID: 2120132
Ephemeris | Orbit Diagram | Orbital Elements | Physical Parameters | Discovery Circumstances ]

[ show orbit diagram ]
Orbital Elements at Epoch 2459000.5 (2020-May-31.0) TDB
Reference: JPL 16 (heliocentric ecliptic J2000)
 Element Value Uncertainty (1-sigma)   Units 
e .2491823283363745 1.3384e-05  
a 49.4582538223761 0.0011587 au
q 37.13413097946503 0.00024023 au
i 11.79495659203638 2.9298e-05 deg
node 341.8736092925903 0.00012482 deg
peri 175.1453338956069 0.001878 deg
M 33.17695399035174 0.0021643 deg
tp 2447292.287255705753
(1988-May-10.78725571)
0.3696 TDB
period 127044.7126994144
347.83
4.4644
0.01222
d
yr
n .002833648031081417 9.9575e-08 deg/d
Q 61.78237666528717 0.0014474 au
  Orbit Determination Parameters
   # obs. used (total)      363  
   data-arc span      11126 days (30.46 yr)  
   first obs. used      1989-12-08  
   last obs. used      2020-05-25  
   planetary ephem.      DE431  
   SB-pert. ephem.      SB431-N16  
   condition code      2  
   norm. resid. RMS      .42257  
   source      ORB  
   producer      Otto Matic  
   solution date      2020-Nov-12 17:59:18  

Additional Information
 Earth MOID = 36.144 au 
 Jupiter MOID = 31.7198 au 
 T_jup = 5.951 
[ show covariance matrix ]

Ephemeris | Orbit Diagram | Orbital Elements | Physical Parameters | Discovery Circumstances ]

Physical Parameter Table
Parameter Symbol Value Units Sigma Reference Notes
absolute magnitude H 4.6   n/a MPO417626  
rotation period rot_per 8.54 h n/a LCDB (Rev. 2019-August); Warner et al., 2009 Result based on less than full coverage, so that the period may be wrong by 30 percent or so.
Published Reference List:
[Thirouin, A.; Ortiz, J.L.; Duffard, R.; Santos-Sanz, P.; et al. (2010) Astron. Astrophys. 522, A93.]

120132 (2003 FY128)          Discovered 2003-Mar-26 by NEAT at Palomar
Reference: 20051116/Numbers.arcLast Updated: 2005-11-21
Ephemeris | Orbit Diagram | Orbital Elements | Physical Parameters | Discovery Circumstances ]
ABOUT SSD CREDITS/AWARDS PRIVACY/COPYRIGHT GLOSSARY LINKS
FirstGov 2020-Dec-01 09:32 UT
(server date/time)  
NASA Home Page
Site Manager:   Ryan S. Park
Webmaster  Alan B. Chamberlin